Dauntless Aviation
Greetings, Guest! To participate, [sign up for a free account] or [log in]
Airports Europe United Kingdom
EGLC
LCY

London City

London, UNITED KINGDOM

Airport Info
Edit

Location

Latitude / Longitude: 51°30'18"N / 0°3'12"E
  51°30.3'N / 0°3.21'E
  51.5050 / 0.0535

Nearby radio navigation aids

LCY CITY NDB on field.

Runway Information

Runway 10 /28

Dimensions: 4948 x 98 ft.
Surface: ASP
 
Runway 10
Runway 28
Latitude: 51.505528 51.504922
Longitude: 0.045753 0.064953
Elevation: 16 ft. 16 ft.
Runway true heading: 91.1 271.1
 

Instrument Procedures

  Control Zone and Control Area Chart
  Aircraft Parking/Docking Chart
  Aerodrome Chart

STARs (Standard Terminal Arrivals)

  STAR via SPEAR (Northwest)
  STAR via ALKIN (South)
  STAR via SPEAR (East)
  STAR via SPEAR (West)
  STAR via SPEAR (Alternate Holding at LOGAN and ALKIN)

IAPs (Instrument Approach Procedures)

  LOC/DME/NDB (L) Rwy 27 (Aircraft CAT A/B/C)
  Visual Approach Profile Rwy 27
  ILS (5.5°GP) /DME/NDB (L) Rwy 27 (Aircraft CAT A/B/C)
  Visual Approach Profile Rwy 09
  LOC/DME/NDB (L) Rwy 09
  ATC Surveillance Minimum Altitude Chart
  ILS (5.5°GP) /DME/NDB (L) Rwy 09 (Aircraft CAT A/B/C)

Departure Procedures

  SID DOVER/LYDD
  SID CLACTON
  SID SOUTHAMPTON
  SID BROOKMANS PARK/COMPTON
Satellite photo at:
Airport distance calculator
From:
Weather Reports

METAR

EGLC

EGLC 271850Z 22006KT 9999 SCT045 16/12 Q1009
EGKB
11.4nm S
EGKB 271850Z 27004KT 9999 VCSH FEW035 14/10 Q1009
EGWU
17.8nm W
EGWU 271850Z 24005KT 9999 FEW030 SCT060 15/11 Q1008 NOSIG
EGLL
18.9nm SW
EGLL 271850Z 23007KT 9999 FEW030 15/12 Q1009 NOSIG
EGSS
23.5nm N
EGSS 271850Z 23009KT CAVOK 14/11 Q1008
EGKK
23.8nm S
EGKK 271850Z 22006KT CAVOK 15/11 Q1009

TAF

EGLC
TAF EGLC 271658Z 2718/2721 23009KT 9999 FEW035 PROB30 TEMPO 2718/2720 8000 SHRA
EGKB
11.4nm S
TAF EGKB 271658Z 2718/2720 22009KT 9999 SCT030 PROB30 TEMPO 2718/2720 7000 SHRA
EGWU
17.8nm W
TAF EGWU 271633Z 2718/2812 27010KT 9999 SCT035 PROB30 TEMPO 2718/2719 6000 SHRA PROB40 2803/2807 7000 MIFG
EGLL
18.9nm SW
TAF EGLL 271654Z 2718/2824 23008KT 9999 FEW025 PROB30 TEMPO 2718/2720 8000 SHRA PROB30 2803/2807 5000 BR PROB30 TEMPO 2810/2817 8000 SHRA
EGSS
23.5nm N
TAF EGSS 271659Z 2718/2824 23009KT 9999 SCT020 PROB40 TEMPO 2718/2720 7000 SHRA PROB40 2803/2808 7000
EGKK
23.8nm S
TAF EGKK 271704Z 2718/2824 22010KT 9999 FEW025 BECMG 2802/2805 VRB03KT 5000 BR MIFG PROB30 2804/2807 0300 FG VV/// BECMG 2806/2809 22010KT 9999 NSW
Safelog

 

Dauntless Aviation

© 2007-2015 Dauntless Aviation, all rights reserved
Information provided via PilotNav comes from a variety of official and unofficial data sources. As errors are possible, do not use PilotNav for primary flight planning purposes. Verify any information that you receive via PilotNav with current and canonical charts and other official documents. The material in this database is subject to database copyrights held by Dauntless Aviation and may not be copied without the express permission of Dauntless Aviation - licenses for use of part of all of this data are available for purchase; enquire via the Dauntless Aviation helpdesk. A number of mechanisms and markers exist in the database to protect against and identify infringement / copyright. Automated queries against this website are stictly prohibited, and all activity is logged and analyzed.